This is the latest recevied weather packets stored in our database for station/object DB0SVX. If no packets are shown the sender has not sent any weather packets the latest 10 day(s).
| Time | Temp. | Humidity | Pressure | Rain* | Wind** | Luminosity | Snow |
|---|---|---|---|---|---|---|---|
| 1777385419 | 25° C | 24% | 1014 hPa | 0 mm | - | - | - |
| 1777384519 | 25° C | 25% | 1013.9 hPa | 0 mm | - | - | - |
| 1777383619 | 23.89° C | 27% | 1014.2 hPa | 0 mm | - | - | - |
| 1777382719 | 23.89° C | 28% | 1014.4 hPa | 0 mm | - | - | - |
| 1777381819 | 23.89° C | 28% | 1014.5 hPa | 0 mm | - | - | - |
| 1777380919 | 23.33° C | 29% | 1014.5 hPa | 0 mm | - | - | - |
| 1777380019 | 23.33° C | 29% | 1014.5 hPa | 0 mm | - | - | - |
| 1777379119 | 23.89° C | 28% | 1014.7 hPa | 0 mm | - | - | - |
| 1777378219 | 24.44° C | 27% | 1014.7 hPa | 0 mm | - | - | - |
| 1777377319 | 25.56° C | 26% | 1014.5 hPa | 0 mm | - | - | - |
| 1777376418 | 25.56° C | 26% | 1014.5 hPa | 0 mm | - | - | - |
| 1777375518 | 25.56° C | 26% | 1014.7 hPa | 0 mm | - | - | - |
| 1777374619 | 25.56° C | 26% | 1014.9 hPa | 0 mm | - | - | - |
| 1777373719 | 26.11° C | 25% | 1015 hPa | 0 mm | - | - | - |
| 1777372818 | 25.56° C | 26% | 1014.7 hPa | 0 mm | - | - | - |
| 1777371919 | 24.44° C | 27% | 1014.9 hPa | 0 mm | - | - | - |
| 1777371019 | 23.89° C | 28% | 1015 hPa | 0 mm | - | - | - |
| 1777370118 | 23.33° C | 28% | 1015 hPa | 0 mm | - | - | - |
| 1777369218 | 22.78° C | 29% | 1015 hPa | 0 mm | - | - | - |
| 1777368319 | 22.22° C | 30% | 1015.2 hPa | 0 mm | - | - | - |
| 1777367418 | 21.11° C | 31% | 1015.2 hPa | 0 mm | - | - | - |
| 1777366519 | 21.11° C | 31% | 1015 hPa | 0 mm | - | - | - |
| 1777365618 | 20.56° C | 32% | 1015.2 hPa | 0 mm | - | - | - |
| 1777364719 | 20.56° C | 32% | 1015 hPa | 0 mm | - | - | - |
| 1777363819 | 18.89° C | 35% | 1015 hPa | 0 mm | - | - | - |
* Rain latest hour (hover to see other rain measurements)
** Current wind speed in m/s (hover to see current wind gust speed)